This demonstration page uses our WeatherBlox Daily Observations layout. Learn more.

Left ArrowRight Arrow

Hourly Observations for January 31, 2020

Temp ( °F °C ) Dew Point ( °F °C ) Humidity (%) Winds ( mph kmh ) Pressure ( in mb ) Visibility ( mi km ) Precip ( " mm )
12:16 am 00:16 Cloudy 32 0 30 -1 93 93 ESE 3 6 30.24 1024 10 16.0934 N/A
12:36 am 00:36 Cloudy 32 0 30 -1 93 93 ESE 3 6 30.24 1024 10 16.0934 N/A
12:56 am 00:56 Cloudy 32 0 30 -1 93 93 ESE 3 6 30.23 1024 10 16.0934 N/A
1:15 am 01:15 Cloudy 32 0 30 -1 93 93 ESE 5 7 30.23 1024 10 16.0934 N/A
1:36 am 01:36 Cloudy 32 0 30 -1 93 93 Calm 30.23 1024 10 16.0934 N/A
1:56 am 01:56 Cloudy 32 0 30 -1 93 93 ESE 3 6 30.23 1024 10 16.0934 N/A
2:15 am 02:15 Cloudy 32 0 30 -1 93 93 Calm 30.23 1024 10 16.0934 N/A
2:36 am 02:36 Cloudy 32 0 32 0 100 100 ESE 3 6 30.22 1023 10 16.0934 N/A
2:56 am 02:56 Cloudy 32 0 30 -1 93 93 ESE 3 6 30.22 1023 10 16.0934 N/A
3:15 am 03:15 Cloudy 32 0 30 -1 93 93 E 3 6 30.21 1023 10 16.0934 N/A
3:36 am 03:36 Cloudy 32 0 32 0 100 100 Calm 30.22 1023 10 16.0934 N/A
3:55 am 03:55 Cloudy 32 0 32 0 100 100 Calm 30.22 1023 10 16.0934 N/A
4:16 am 04:16 Cloudy 32 0 32 0 100 100 E 3 6 30.21 1023 10 16.0934 N/A
4:36 am 04:36 Cloudy 30 -1 30 -1 100 100 Calm 30.21 1023 7 11.26538 N/A
4:56 am 04:56 Cloudy 30 -1 30 -1 100 100 Calm 30.21 1023 10 16.0934 N/A
5:16 am 05:16 Cloudy 30 -1 30 -1 100 100 Calm 30.21 1023 7 11.26538 N/A
5:35 am 05:35 Cloudy 30 -1 30 -1 100 100 Calm 30.21 1023 7 11.26538 N/A
5:56 am 05:56 Cloudy 30 -1 30 -1 100 100 Calm 30.21 1023 7 11.26538 N/A
6:16 am 06:16 Cloudy 30 -1 30 -1 100 100 ENE 3 6 30.21 1023 7 11.26538 N/A
6:36 am 06:36 Cloudy 30 -1 30 -1 100 100 E 3 6 30.21 1023 7 11.26538 N/A
6:56 am 06:56 Cloudy 30 -1 30 -1 100 100 Calm 30.21 1023 7 11.26538 N/A
7:15 am 07:15 Cloudy 32 0 32 0 100 100 Calm 30.21 1023 7 11.26538 N/A
7:35 am 07:35 Cloudy 32 0 32 0 100 100 Calm 30.21 1023 7 11.26538 N/A
7:55 am 07:55 Cloudy 32 0 32 0 100 100 SE 3 6 30.21 1023 7 11.26538 N/A
8:15 am 08:15 Cloudy 32 0 32 0 100 100 SE 3 6 30.21 1023 3 4.82802 N/A
8:35 am 08:35 Cloudy 32 0 32 0 100 100 SE 6 9 30.21 1023 2 3.21868 N/A
8:55 am 08:55 Cloudy 32 0 32 0 100 100 SE 6 9 30.21 1023 1.5 2.41401 N/A
9:16 am 09:16 Cloudy 32 0 32 0 100 100 SE 5 7 30.22 1023 1.5 2.41401 N/A
9:35 am 09:35 Cloudy 32 0 32 0 100 100 SE 5 7 30.22 1023 1.25 2.011675 N/A
9:56 am 09:56 Cloudy 32 0 32 0 100 100 SE 5 7 30.22 1023 1.5 2.41401 N/A
10:15 am 10:15 Cloudy 32 0 32 0 100 100 SE 3 6 30.23 1024 2 3.21868 N/A
10:36 am 10:36 Cloudy 32 0 32 0 100 100 SE 3 6 30.23 1024 2 3.21868 N/A
10:56 am 10:56 Cloudy 32 0 32 0 100 100 SE 5 7 30.24 1024 1.75 2.816345 N/A
11:16 am 11:16 Cloudy 32 0 32 0 100 100 SE 3 6 30.23 1024 2 3.21868 N/A
11:35 am 11:35 Cloudy 34 1 34 1 100 100 Calm 30.22 1023 3 4.82802 N/A
11:55 am 11:55 Cloudy 34 1 34 1 100 100 ESE 3 6 30.22 1023 4 6.43736 N/A
12:15 pm 12:15 Cloudy 34 1 34 1 100 100 E 3 6 30.21 1023 4 6.43736 N/A
12:36 pm 12:36 Cloudy 36 2 36 2 100 100 E 5 7 30.21 1023 7 11.26538 N/A
12:55 pm 12:55 Cloudy 37 3 37 3 100 100 ENE 6 9 30.19 1023 10 16.0934 N/A
1:16 pm 13:16 Cloudy 37 3 36 2 93 93 ENE 6 9 30.17 1022 10 16.0934 N/A
1:36 pm 13:36 Cloudy 36 2 36 2 100 100 NE 5 7 30.18 1022 10 16.0934 N/A
1:55 pm 13:55 Cloudy 36 2 36 2 100 100 ENE 6 9 30.17 1022 10 16.0934 N/A
2:15 pm 14:15 Cloudy 37 3 36 2 93 93 ENE 5 7 30.15 1021 10 16.0934 N/A
2:35 pm 14:35 Cloudy 37 3 37 3 100 100 NE 3 6 30.15 1021 10 16.0934 N/A
2:55 pm 14:55 Cloudy 37 3 36 2 93 93 ENE 5 7 30.15 1021 10 16.0934 N/A
3:15 pm 15:15 Cloudy 37 3 37 3 100 100 NE 6 9 30.14 1021 10 16.0934 N/A
3:36 pm 15:36 Cloudy 37 3 37 3 100 100 NE 5 7 30.14 1021 10 16.0934 N/A
3:55 pm 15:55 Cloudy 37 3 36 2 93 93 E 3 6 30.14 1021 10 16.0934 N/A
4:16 pm 16:16 Cloudy 37 3 36 2 93 93 ENE 3 6 30.14 1021 10 16.0934 N/A
4:35 pm 16:35 Cloudy 37 3 37 3 100 100 E 3 6 30.15 1021 10 16.0934 N/A
4:55 pm 16:55 Cloudy 37 3 36 2 93 93 E 3 6 30.14 1021 10 16.0934 N/A
5:16 pm 17:16 Cloudy 36 2 36 2 100 100 E 3 6 30.16 1021 10 16.0934 N/A
5:35 pm 17:35 Cloudy 36 2 36 2 100 100 E 5 7 30.16 1021 10 16.0934 N/A
5:56 pm 17:56 Cloudy 36 2 36 2 100 100 E 3 6 30.16 1021 10 16.0934 N/A
6:15 pm 18:15 Cloudy 36 2 36 2 100 100 E 3 6 30.16 1021 10 16.0934 N/A
6:35 pm 18:35 Cloudy 36 2 36 2 100 100 E 3 6 30.16 1021 10 16.0934 N/A
6:55 pm 18:55 Cloudy 36 2 36 2 100 100 E 3 6 30.16 1021 10 16.0934 N/A
7:15 pm 19:15 Cloudy 36 2 36 2 100 100 ESE 5 7 30.17 1022 10 16.0934 N/A
7:36 pm 19:36 Cloudy 36 2 36 2 100 100 ESE 5 7 30.17 1022 10 16.0934 N/A
7:56 pm 19:56 Cloudy 36 2 36 2 100 100 ESE 3 6 30.16 1021 10 16.0934 N/A
8:15 pm 20:15 Cloudy 36 2 36 2 100 100 SE 3 6 30.17 1022 10 16.0934 N/A
8:35 pm 20:35 Cloudy 36 2 36 2 100 100 SE 3 6 30.16 1021 10 16.0934 N/A
8:56 pm 20:56 Cloudy 36 2 36 2 100 100 ESE 5 7 30.16 1021 7 11.26538 N/A
9:15 pm 21:15 Cloudy 34 1 34 1 100 100 E 3 6 30.16 1021 10 16.0934 N/A
9:35 pm 21:35 Cloudy 34 1 34 1 100 100 E 3 6 30.16 1021 7 11.26538 N/A
9:55 pm 21:55 Cloudy 34 1 34 1 100 100 E 3 6 30.16 1021 7 11.26538 N/A
10:15 pm 22:15 Cloudy 34 1 34 1 100 100 Calm 30.15 1021 7 11.26538 N/A
10:35 pm 22:35 Cloudy 34 1 34 1 100 100 ESE 3 6 30.16 1021 7 11.26538 N/A
10:56 pm 22:56 Cloudy 34 1 34 1 100 100 SE 5 7 30.15 1021 7 11.26538 N/A
11:16 pm 23:16 Cloudy 34 1 34 1 100 100 ESE 3 6 30.15 1021 5 8.0467 N/A
11:36 pm 23:36 Cloudy 34 1 34 1 100 100 ESE 3 6 30.15 1021 5 8.0467 N/A
11:55 pm 23:55 Cloudy 34 1 34 1 100 100 Calm 30.15 1021 5 8.0467 N/A

Powered by AerisWeather